Regional Weather Roundup
Issued by NWS

Home | Current Version | Previous Version | Graphics & Text | Print | Product List | Glossary Off
Versions: 1 2 3 4 5 6 7 8 9 10 11 12 13 14 15 16 17 18 19 20 21 22 23 24 25 26 27 28 29 30 31 32 33 34 35 36 37 38 39 40 41 42 43 44 45 46 47 48 49 50

000
ASUS43 KMPX 301210
RWRMN
WEATHER ROUNDUP FOR MINNESOTA
NATIONAL WEATHER SERVICE TWIN CITIES/CHANHASSEN MN
700 AM CDT MON MAY 30 2016


NOTE: "FAIR" INDICATES FEW OR NO CLOUDS BELOW 12,000 FEET WITH NO
SIGNIFICANT WEATHER AND/OR OBSTRUCTIONS TO VISIBILITY. N/A MEANS
CURRENT SKY AND/OR WEATHER CONDITIONS ARE NOT AVAILABLE.

MNZ060>063-068>070-301300-
   Twin Cities Metro

CITY           SKY/WX    TMP DP  RH WIND       PRES   REMARKS
TWIN CITIES    CLOUDY    62  58  86 CALM      30.00R
6HR MIN TEMP:  60; 6HR MAX TEMP:  66;

ST PAUL        CLOUDY    59  59 100 SE3       30.01R FOG
CRYSTAL        CLOUDY    59  56  89 CALM      29.99R
BLAINE         PTSUNNY   57  57 100 CALM      30.00R
EDEN PRAIRIE   MOSUNNY   59  57  93 CALM      30.00R FOG
6HR MIN TEMP:  57; 6HR MAX TEMP:  63;

SOUTH ST PAUL  FOG       59  58  96 CALM      30.00S VSB<1/4
LAKE ELMO      FAIR      55  55 100 CALM      30.02R FOG
$$
MNZ001>005-007-008-013>017-022>024-027-028-301300-
   Northwest Minnesota

CITY           SKY/WX    TMP DP  RH WIND       PRES   REMARKS
BEMIDJI        SUNNY     49  49  99 SW5       29.97S
HALLOCK        SUNNY     54  52  94 SE6       29.91S
ROSEAU         SUNNY     52  46  82 CALM      29.94R
WARROAD        SUNNY     52  48  87 CALM      29.95R
THIEF RVR FALL SUNNY     55  46  71 S6        29.95S
CROOKSTON      SUNNY     54  52  94 SE7       29.94S
FOSSTON        SUNNY     55  46  71 S5        29.97S
DETROIT LAKES  CLOUDY    61  52  72 CALM      29.99S
MOORHEAD       MOSUNNY   57  48  72 SE6       29.96S
PARK RAPIDS    CLOUDY    58  51  78 CALM      29.98S
MAHNOMEN       PTSUNNY   58  51  78 CALM      29.97R
$$
MNZ006-009>011-018-025>026-301300-
   North Central Minnesota

CITY           SKY/WX    TMP DP  RH WIND       PRES   REMARKS
BAUDETTE       SUNNY     50  49  96 CALM      29.95R
FLAG ISLAND    SUNNY     55  54  94 CALM      29.93R
INTL FALLS     SUNNY     50  49  96 CALM      29.96R
6HR MIN TEMP:  44; 6HR MAX TEMP:  52;

WASKISH        SUNNY     54  54 100 CALM      29.95S
BIG FORK       SUNNY     50  48  93 CALM      29.97R
LONGVILLE      SUNNY     46  46 100 CALM      29.98S
GRAND RAPIDS   SUNNY     60  51  72 VRB3      29.99S
CRANE LAKE     SUNNY     45  45 100 CALM      29.97R FOG
ORR            SUNNY     48  46  93 CALM      29.94S
COOK           SUNNY     54  52  94 CALM      29.97R
WALKER         FAIR      53  49  87 CALM      29.98S
$$
MNZ012-019>021-037-301300-
   Northeast Minnesota

CITY           SKY/WX    TMP DP  RH WIND       PRES   REMARKS
DULUTH         SUNNY     58  52  80 W10       29.98R
6HR MIN TEMP:  50; 6HR MAX TEMP:  58;

ELY            SUNNY     54  50  87 W7        29.95S
HIBBING        SUNNY     48  48 100 CALM      29.97R
EVELETH        SUNNY     52  52 100 W3        29.98S
DULUTH HARBOR  SUNNY     55  52  88 SW9       29.97F
TWO HARBORS    SUNNY     61  54  77 W5        29.95S
SILVER BAY     SUNNY     59  52  77 CALM      29.94R
GRAND MARAIS     N/A     44  43  96 SW10      29.91R
G MARAIS ARPRT SUNNY     55  50  82 W8        29.92R
$$
MNZ029>031-032-039>041-046>048-054>057-064-301300-
   West Central Minnesota

CITY           SKY/WX    TMP DP  RH WIND       PRES   REMARKS
FERGUS FALLS   SUNNY     59  50  72 SE5       29.95S
WHEATON        SUNNY     61  52  72 S3        29.99S
MORRIS         MOSUNNY   55  52  88 S8        29.98R
ALEXANDRIA     SUNNY     57  52  83 CALM      30.00S
ELBOW LAKE     FAIR      58  50  75 SE3       29.98F
WADENA         MOSUNNY   54  52  94 CALM      29.99S
GLENWOOD       SUNNY     57  52  82 CALM      29.99S
APPLETON       CLOUDY    61  54  77 CALM      29.98F
ORTONVILLE     CLOUDY    57  52  82 SE3       29.97F
MADISON        PTSUNNY   63  52  67 SW3       29.98F
WILLMAR        FAIR      59  54  82 CALM      30.02R
$$
MNZ033>034-036-042>043-049>051-058-059-301300-
   Central Minnesota

CITY           SKY/WX    TMP DP  RH WIND       PRES   REMARKS
ST CLOUD       SUNNY     55  53  93 CALM      29.99S
6HR MIN TEMP:  49; 6HR MAX TEMP:  55;

SAUK CENTRE    FAIR      52  50  95 CALM      29.99S
PAYNESVILLE    PTSUNNY   55  54  96 CALM      30.00R
AITKIN         SUNNY     55  52  88 CALM      29.98S
PINE RIVER     CLOUDY    52  52 100 CALM      30.01F
BRAINERD       CLOUDY    55  53  93 S3        30.00S
STAPLES        CLOUDY    55  52  88 CALM      29.99S
LONG PRAIRIE   FAIR      54  52  94 CALM      30.00S
LITTLE FALLS   SUNNY     52  50  93 CALM      30.00R FOG
LITCHFIELD     MOSUNNY   61  55  82 CALM      30.01R
BUFFALO        CLOUDY    57  55  92 CALM      30.01R
MAPLE LAKE     CLOUDY    58  57  99 CALM      30.01R FOG
HUTCHINSON     PTSUNNY   58  56  91 CALM      30.03R
$$
MNZ037-044-045-052-053-301300-
   East Central Minnesota

CITY           SKY/WX    TMP DP  RH WIND       PRES   REMARKS
PRINCETON        N/A     55  54  94 CALM      30.00S
MORA           SUNNY     52  50  93 CALM      30.01F
CAMBRIDGE      SUNNY     57  50  77 CALM      29.98S
RUSH CITY      SUNNY     53  53  97 CALM      30.00S
MOOSE LAKE     SUNNY     48  46  93 CALM      29.98S FOG
HINCKLEY       FAIR      52  52 100 CALM      29.99S
CLOQUET        SUNNY     57  52  82 W5        29.98S
MCGREGOR       SUNNY     50  50 100 CALM      30.00S
$$
MNZ071>073-080-081-089-090-097-098-301300-
   Southwest Minnesota

CITY           SKY/WX    TMP DP  RH WIND       PRES   REMARKS
MONTEVIDEO     CLOUDY    61  54  77 SW6       30.01F
GRANITE FALLS  CLOUDY    61  55  81 S7        30.02S
CANBY          CLOUDY    67  54  63 SW7       30.00F
MARSHALL       CLOUDY    64  53  67 SW3       30.00
REDWOOD FALLS  PTSUNNY   60  52  74 SW6       30.01S
OLIVIA         CLOUDY    59  54  82 SW6       30.01S
PIPESTONE      PTSUNNY   61  55  82 CALM      30.00S
WINDOM         CLOUDY    63  54  72 CALM      30.02F
WORTHINGTON    PTSUNNY   60  54  80 E7        30.00F
JACKSON        DRIZZLE   61  54  77 SE3       30.03F
TRACY          CLOUDY    64  54  70 S7        30.01F
SLAYTON        CLOUDY    59  55  87 E3        30.01F
$$
MNZ065>067-074>077-082>085-091>093-301300-
   South Central Minnesota

CITY           SKY/WX    TMP DP  RH WIND       PRES   REMARKS
MANKATO        CLOUDY    57  52  82 S7        30.04R
NEW ULM        CLOUDY    59  55  88 SW7       30.03S
ST JAMES       PTSUNNY   57  50  77 S3        30.05S
FAIRMONT       CLOUDY    63  48  59 SW6       30.05F
GLENCOE        MOSUNNY   59  57  94 CALM      30.01R
FARIBAULT      CLOUDY    55  55 100 S1        30.02R
OWATONNA       CLOUDY    59  54  82 CALM      30.03R
WASECA         CLOUDY    54  52  94 SW6       30.06R
ALBERT LEA     CLOUDY    59  57  94 CALM      30.06R
$$
MNZ078>079-086>088-094>096-301300-
   Southeast Minnesota

CITY           SKY/WX    TMP DP  RH WIND       PRES   REMARKS
ROCHESTER      CLOUDY    57  56  96 S6        30.04S
6HR MIN TEMP:  54; 6HR MAX TEMP:  62;

RED WING       CLOUDY    57  57 100 CALM      30.00S FOG
STANTON        CLOUDY    55  53  93 CALM      30.00S
DODGE CENTER   CLOUDY    57  55  94 CALM      30.03S
WINONA         CLOUDY    59  57  94 CALM      30.02S
AUSTIN         MOSUNNY   55  54  94 CALM      30.03S
PRESTON        CLOUDY    57  54  90 S5        30.04R
$$
ABBREVIATIONS USED IN REMARKS
   TC - TEMPERATURES IN CELSIUS
  WCI - WIND CHILL INDEX
   HX - HEAT INDEX
  VSB - VISIBILITY
$$



USA.gov is the U.S. government's official web portal to all federal, state and local government web resources and services.